EST,Max TemperatureF,Mean TemperatureF,Min TemperatureF,Max Dew PointF,MeanDew PointF,Min DewpointF,Max Humidity, Mean Humidity, Min Humidity, Max Sea Level PressureIn, Mean Sea Level PressureIn, Min Sea Level PressureIn, Max VisibilityMiles, Mean VisibilityMiles, Min VisibilityMiles, Max Wind SpeedMPH, Mean Wind SpeedMPH, Max Gust SpeedMPH,PrecipitationIn, CloudCover, Events, WindDirDegrees
2011-11-1,68,50,32,40,33,26,93,66,21,30.34,30.27,30.23,10,9,5,6,0,,0.00,0,,97
2011-11-2,68,50,32,39,33,29,89,63,24,30.40,30.30,30.22,10,10,10,9,2,,0.00,0,,138
2011-11-3,66,52,37,56,46,34,94,81,52,30.21,29.98,29.85,10,8,1,17,3,25,0.56,6,Rain,260
2011-11-4,63,54,44,43,40,37,77,67,46,30.12,30.02,29.93,10,10,8,16,6,24,0.00,4,,334
2011-11-5,63,49,35,43,36,27,93,68,38,30.31,30.22,30.14,10,7,1,9,2,,0.00,0,,125
2011-11-6,48,41,36,34,32,30,86,70,54,30.42,30.35,30.31,10,10,10,5,1,,0.00,0,,140
2011-11-7,72,60,45,48,46,42,90,65,38,30.30,30.26,30.23,10,10,4,5,2,,0.00,0,,93
2011-11-8,73,58,42,51,46,41,93,71,41,30.26,30.18,30.10,10,10,7,10,1,,0.00,3,,153
2011-11-9,66,57,48,59,54,46,94,85,65,30.11,30.04,29.97,10,7,2,7,2,,0.10,6,Rain,317
2011-11-10,57,50,36,44,28,15,80,50,23,30.15,30.08,30.04,10,10,10,16,9,23,0.00,0,,332
2011-11-11,34,,34,21,21,21,59,59,59,30.15,30.15,30.15,10,10,10,4,4,,0.00,0,,290
2011-11-12,,,,,,,,,,,,,,,,,,,,,,
2011-11-13,,,,,,,,,,,,,,,,,,,,,,
2011-11-14,,,,,,,,,,,,,,,,,,,,,,
2011-11-15,68,66,62,64,63,61,94,91,84,30.00,29.93,29.87,10,7,2,14,4,26,0.33,8,Rain,196
2011-11-16,72,64,55,66,61,49,100,89,73,29.92,29.82,29.72,10,7,1,15,3,22,0.48,8,Rain-Thunderstorm,172
2011-11-17,55,46,33,47,30,15,76,54,25,30.35,30.15,29.92,10,10,10,18,10,26,0.00,2,,346
2011-11-18,55,40,26,23,21,16,81,52,22,30.44,30.36,30.32,10,10,10,12,2,16,0.00,1,,124
2011-11-19,46,44,42,22,20,19,45,36,33,30.36,30.34,30.32,10,10,10,6,5,,0.00,8,,143
2011-11-20,,,,,,,,,,,,,,,,,,,,,,
2011-11-21,,,,,,,,,,,,,,,,,,,,,,
2011-11-22,,,,,,,,,,,,,,,,,,,,,,
2011-11-23,57,52,46,45,41,40,79,66,55,30.26,30.18,30.13,10,10,10,18,11,25,0.00,5,,357
2011-11-24,64,48,33,40,36,26,100,73,24,30.38,30.33,30.26,10,8,0,8,3,30,0.00,0,Fog,356
2011-11-25,35,32,30,33,30,27,92,89,85,30.37,30.35,30.33,10,10,7,0,0,,0.00,0,,-1
2011-11-26,,,,,,,,,,,,,,,,,,,,,,
2011-11-27,,,,,,,,,,,,,,,,,,,,,,
2011-11-28,,,,,,,,,,,,,,,,,,,,,,
2011-11-29,,,,,,,,,,,,,,,,,,,,,,
2011-11-30,36,32,28,30,27,25,88,84,79,30.21,30.18,30.14,10,9,7,4,2,,0.00,0,,320